Regional Weather Roundup
Issued by NWS Wakefield, VA

Home | Current Version | Previous Version | Graphics & Text | Print | Product List | Glossary On
Versions: 1 2 3 4 5 6 7 8 9 10 11 12 13 14 15 16 17 18 19 20 21 22 23 24 25 26 27 28 29 30 31 32 33 34 35 36 37 38 39 40 41 42 43 44 45 46 47 48 49 50
000
ASUS41 KAKQ 010513
RWRAKQ

REGIONAL WEATHER ROUNDUP
NATIONAL WEATHER SERVICE WAKEFIELD VA
100 AM EDT TUE SEP 01 2015

Note: "fair" indicates few or no clouds below 12,000 feet with no
significant weather and/or obstructions to visibility. * = Denotes
station may not report precipitation (e.g., rain,snow,etc.),
thunder or fog.

VAZ042-051-052>054-056-010600-
NORTHERN VIRGINIA

CITY           SKY/WX    TMP DP  RH WIND       PRES   REMARKS
WASH NATIONAL  PTCLDY    75  70  84 SW8       30.07S
DULLES         CLEAR     72  68  87 S6        30.07S
FORT BELVOIR   CLEAR     74  70  86 VRB1      30.07R
QUANTICO       CLEAR     74  68  81 SW5       30.08R
FREDERICKSBRG* CLEAR     74  72  93 SW3       30.07S
STAFFORD*      CLEAR     71  68  90 CALM      30.11F
WARRENTON      CLEAR     71  70  96 S3        30.08R
CULPEPER*      CLEAR     71  69  94 SW3       30.09S
MANASSAS*      CLEAR     70  70 100 CALM      30.08R
LEESBURG*      CLEAR     72  70  94 S6        30.08S
WINCHESTER     PTCLDY    66  63  88 CALM      30.08S
FRONT ROYAL*   FAIR      70  64  83 S5        30.08S
LURAY*         FAIR      64  63  94 CALM      30.11R
$$

VAZ048-049-060>072-079>083-010600-
CENTRAL AND SOUTH CENTRAL VIRGINIA

CITY           SKY/WX    TMP DP  RH WIND       PRES   REMARKS
RICHMOND       CLOUDY    73  69  87 SW9       30.08S
CHESTERFIELD*  CLOUDY    72  61  68 SW6       30.10S
PETERSBURG*    CLOUDY    71  71 100 CALM      30.09F FOG
HANOVER        CLOUDY    71  69  93 SW6       30.10R
TAPPAHANNOCK*  CLEAR     70  67  90 CALM      30.08F
QUINTON*       CLOUDY    70  69  97 CALM      30.08S
CHARLOTTSVILLE CLEAR     71  67  87 SW3       30.09S
GORDONSVILLE*  FAIR      70  69  97 CALM      30.09S
ORANGE*        CLEAR     70  68  94 S3        30.10S
LOUISA*        CLOUDY    72  70  94 SW6       30.08S
BUMPASS*       MOCLDY    69  68  98 MISG      30.09S
FARMVILLE*     CLEAR     70  70 100 CALM      30.09S
CREWE*         CLOUDY   N/A N/A N/A SW3       30.09F
FORT PICKETT*  CLOUDY    72  70  95 CALM      30.09F
CHASE CITY*    MOCLDY    70  70 100 CALM      30.10S
CLARKSVILLE*   CLOUDY    68  68 100 CALM      30.09F VSB 1
SOUTH HILL*    CLOUDY    71  70  98 CALM      30.14F
LAWRENCEVILLE* CLOUDY    72  72 100 CALM      30.09S
EMPORIA*       CLOUDY    70  70 100 CALM      30.10S FOG
$$

VAZ088>098-010600-
SOUTHEAST VIRGINIA

CITY           SKY/WX    TMP DP  RH WIND       PRES   REMARKS
NORFOLK        CLOUDY    73  69  87 CALM      30.07S
VIRGINIA BEACH MOCLDY    73  68  84 CALM      30.06S
NORFOLK NAVAL  MOCLDY    74  70  87 SW3       30.08S
WEST POINT*    MOCLDY    71  68  92 CALM      30.10R
SALUDA*        FAIR      69  68  98 CALM      30.08S
NEWPORT NEWS   PTCLDY    73  70  90 SW3       30.07F
LANGLEY AFB    PTCLDY    74  70  89 SW3       30.06F
FORT EUSTIS    MOCLDY    73  73 100 SW1       30.06S
WILLIAMSBURG*  MOCLDY    75  72  88 CALM      30.09S
HR EXEC AP*      N/A     70  66  88 CALM      30.09S
FRANKLIN*      CLOUDY    71  70  99 CALM      30.08S
WAKEFIELD      CLOUDY    71  69  93 CALM      30.08S FOG
$$

VAZ020-022-025-037-045-010600-
WEST CENTRAL AND SOUTHWEST VIRGINIA

CITY           SKY/WX    TMP DP  RH WIND       PRES   REMARKS
STAUNTON*      CLEAR     66  62  87 CALM      30.14S
WAYNESBORO*    FAIR      68  62  81 CALM      30.14S
HOT SPRINGS VA PTCLDY    66  62  85 NW6       30.26S
LYNCHBURG      CLEAR     66  66 100 CALM      30.13S
DANVILLE       CLEAR     68  66  93 W3        30.11S
SOUTH BOSTON*  CLOUDY    66  64  95 CALM      30.10S VSB 1/2
MARTINSVILLE   MOCLDY    66  66 100 CALM      30.16S
ROANOKE        PTCLDY    70  64  81 CALM      30.15S
BLACKSBURG     CLEAR     64  63  97 CALM      30.22S
DUBLIN*        MOCLDY    66  65  94 CALM      30.20S
MARION*        CLEAR     64  62  94 CALM      30.24S
HILLSVILLE*    CLEAR     64  63  95 SW3       30.21S
RICHLANDS*     FAIR      65  37  35 CALM      30.23R
WISE*          CLEAR     66  61  82 CALM      30.23S
ABINGDON*      CLEAR     67  63  85 CALM      30.18F
$$

MDZ021>025-VAZ099-100-010600-
SOUTHERN MARYLAND AND THE DELMARVA PENINSULA

CITY           SKY/WX    TMP DP  RH WIND       PRES   REMARKS
PATUXENT RIVER CLEAR     72  68  87 SW8       30.06S
BAY BRIDGE APT   N/A     73  70  88 SW8       30.06S
LEONARDTOWN    NOT AVBL
DOVER          CLEAR     74  74 100 SW8       30.03F
GEORGETOWN     CLEAR     71  68  90 SW5       30.06F
EASTON         NOT AVBL
CAMBRIDGE      CLEAR     72  70  94 CALM      30.06S
SALISBURY      CLEAR     70  68  93 CALM      30.06S
OCEAN CITY     CLEAR     72  67  84 W5        30.07S
WALLOPS ISLAND CLEAR     72  69  90 SW6       30.07F
ACCOMACK*      MOCLDY    64  61  88 S7        30.08S
$$

NCZ012>017-030>032-010600-
NORTH CENTRAL AND EASTERN NORTH CAROLINA

CITY           SKY/WX    TMP DP  RH WIND       PRES   REMARKS
ROANOKE RAPIDS FOG       70  70 100 CALM      30.08S VSB 1/2
RALEIGH        MOCLDY    70  68  94 CALM      30.09F FOG
ELIZABETH CITY LGT RAIN  74  73  97 E3        30.07F
AHOSKIE*       CLOUDY    71  70  97 CALM      30.07F FOG
EDENTON*       CLOUDY    71  71  98 CALM      30.06F
CURRITUCK*     CLOUDY    73  71  92 CALM      30.07F
KILL DEVIL HLS CLOUDY    75  72  91 CALM      30.05F
MANTEO         CLOUDY    72  72  99 CALM      30.06F
CAPE HATTERAS  CLEAR     79  74  84 S9        30.05F
TARBORO*       MOCLDY    73  71  95 N3        30.08S FOG
GOLDSBORO      MOCLDY    74  73  99 CALM      30.05S
WASHINGTON     CLOUDY    73  73  99 CALM      30.06S
GREENVILLE     MOCLDY    73  73 100 CALM      30.08S
NEW BERN       MOCLDY    75  73  93 CALM      30.06S
WILMINGTON     CLOUDY    75  74  96 W5        30.05S
$$

VAZ048-010600-
ELSEWHERE

CITY           SKY/WX    TMP DP  RH WIND       PRES   REMARKS
HARRISBURG PA  PTCLDY    72  68  87 CALM      30.04R
BALTIMORE      CLEAR     74  68  81 SW3       30.05S
ANNAPOLIS      CLEAR     74  70  87 SW6       30.05S
ANDREWS AFB    CLEAR     73  69  89 SW8       30.06S
PHILADELPHIA   CLEAR     77  67  71 SW12      30.04S
HENDERSON NC   CLOUDY    70  67  92 CALM      30.10S FOG
GREENSBORO     CLEAR     71  68  90 CALM      30.12R
ROCKY MOUNT    MOCLDY    72  71  97 CALM      30.07S FOG
$$

VAZ100-010600-
MARINE

STATION/POSITION TIME  TEMP    WIND        PRES    WAVE   SWELL
                       AIR SEA DIR/SP/G            HT/PER HT/PER
                 (UTC) (F)     (DEG/KT/KT) (MB)    (FT/S) (FT/S)
BRANDYWINE LGT   0400   74 75  240/ 15/ 17   N/A
CAPE MAY NJ      0400   75 80  240/ 10/ 12   N/A
LEWES DE         0400   74 75  240/  6/  9   N/A
15NM E FENWICK I 0450   77 78  240/ 16/ 17 1017.8R   3/ 9   2/ 9
OCEAN-CITY-INLET 0400   75 77  260/  7/ 10   N/A
GOOSES REEF MD   0500   76 79  250/ 12/ 14 1018.7F
COVE POINT MD    0400   75     260/ 10/ 13   N/A
SOLOMONS ISLAND  0400      80                N/A
BISHOPS HEAD MD  0400   77 77  230/ 10/ 12   N/A
PINEY POINT MD   0405          260/  6/  9   N/A
POTOMAC MD       0500   75 79  270/  8/ 12 1017.3R   1/ 2
CAMBRIDGE MD     0400   75 80  210/  4/  6   N/A
LEWISETTA VA     0400   73 79  260/  7/  9   N/A
RAPPAHANNOCK LGT 0400          220/  7/  8   N/A
STINGRAY PT      0500   76 79  240/  4/  6 1018.8S   0
YORK RVR RNG VA  0400   76     210/  5/  6   N/A
YORKTOWN VA      0400   74 80  200/  3/  3   N/A
JAMESTOWN VA     0500   73 81  250/  2/  6   N/A
DOMINION TERM VA 0400   75     220/  7/  8   N/A
KIPTOPEKE VA     0400      78  210/  7/  8   N/A
CHES BAY BRIDGE  0400   74 79  160/  5/  7   N/A
CAPE HENRY VA    0400   73     180/  3/  4   N/A
CHESAPEAKE LGHT  0400   76     170/  9/ 10 1018.9F
WILLOUBY STN VA  0400   75     280/  2/  6   N/A
CAPE HENRY BUOY  0428      78                N/A     2/ 8
1ST LANDING BUOY 0500      78              1017.8F   1/ 5
CAPE CHARLES BUO 0426      78                N/A     2/ 9   2/ 9
OFFSHORE WE BUOY 0411      78                N/A     2/ 9   2/ 9
64NM E OF VA BCH 0450   76 78  180/  2/  4 1018.0F   3/ 8   3/ 8
DUCK PIER NC     0400   77 78   80/  4/  5   N/A
44100 DUCK FRF   0424      78                N/A     2/11   2/11
44056 DUCK FRF   0411      78                N/A     2/11   2/11
OREGON INLET NC  0400   76 80  130/  3/  4   N/A
HATTERAS NC      0400   80 80  170/ 10/ 13   N/A
DIAMOND SHLS NC  0450   81 84  180/ 12/ 16 1017.6F   4/ 5   3/ 9
CAPE LOOKOUT NC  0500   78     190/  5/  7 1016.8F
$$



USA.gov is the U.S. government's official web portal to all federal, state and local government web resources and services.